sat.trackr.live / text

‹ back to catalog

HYPSO-2

NORAD 60531 · 2024-149BR

PAYLOAD ACTIVE UNKNOWN

§ Identity

Operator
Country
NOR
Launch date
2024-08-16
Launch site
AFWTR
Launch vehicle
Mass (kg)
RCS (m²)

External: N2YO · Heavens-Above · Gunter

§ Orbital elements

Epoch: 2026-05-25T04:00:28.590912Z

Period
96.09 min
Inclination
97.6839°
Eccentricity
0.0002946
Mean motion
14.98667501 rev/d
Perigee alt
569.0 km
Apogee alt
573.1 km
Semi-major
6,949.1 km
B*
2.4896e-4
RAAN
221.7631°
Arg perigee
85.9605°
Mean anomaly
274.1954°
Rev number
9,660

§ Raw data

HYPSO-21 60531U 24149BR  26145.16699758  .00002932  00000+0  24896-3 0  99912 60531  97.6839 221.7631 0002946  85.9605 274.1954 14.98667501 96605

JSON: /api/v1/satellites/60531 · /tle

For live sub-satellite position, see the globe view (requires WebGL).

§ Visibility from observer

Set your observer location to see the next 7 days of passes ≥ 10°. The values pass through the URL so the page stays shareable.

No JS? Fill the form by hand. The geolocation button needs JavaScript.